This demonstration page uses our WeatherBlox Daily Observations layout. Learn more.

40.92945, -100.16068

Hourly Observations for May 27, 2016

Temp ( °F °C ) Dew Point ( °F °C ) Humidity (%) Winds ( mph kmh ) Pressure ( in mb ) Visibility ( mi km ) Precip ( " mm )
12:15 am 00:15 Cloudy with Light Rain 56 13.6 54 12.3 92 92 SE 10 17 29.74 1007 10 16.0934 0.01 0.254
12:35 am 00:35 Partly Cloudy 56 13.5 54 12.1 91 91 NE 9 15 29.65 1004 10 16.0934 0.01 0.254
12:55 am 00:55 Mostly Cloudy 57 14.1 55 12.9 93 93 WSW 6 9 29.65 1004 10 16.0934 0.01 0.254
1:15 am 01:15 Cloudy 57 14.1 55 12.7 91 91 SE 6 9 29.68 1005 10 16.0934 N/A
1:35 am 01:35 Cloudy 58 14.5 56 13.2 92 92 ESE 10 17 29.68 1005 10 16.0934 N/A
1:55 am 01:55 Cloudy 59 14.8 56 13.3 91 91 ESE 8 13 29.71 1006 10 16.0934 0.01 0.254
2:15 am 02:15 Partly Cloudy 58 14.3 55 13 92 92 E 6 9 29.68 1005 10 16.0934 N/A
2:35 am 02:35 Partly Cloudy 57 14 55 12.8 93 93 E 7 11 29.68 1005 10 16.0934 N/A
2:55 am 02:55 Cloudy 58 14.3 56 13.2 93 93 E 8 13 29.71 1006 10 16.0934 N/A
3:15 am 03:15 Cloudy 58 14.6 56 13.3 92 92 ESE 15 24 29.68 1005 10 16.0934 N/A
3:35 am 03:35 Cloudy 58 14.5 55 13 91 91 SE 10 17 29.68 1005 10 16.0934 N/A
3:55 am 03:55 Mostly Cloudy 58 14.2 55 12.6 90 90 SE 9 15 29.68 1005 10 16.0934 0 0
4:15 am 04:15 Partly Cloudy 56 13.5 54 12.1 91 91 Calm 29.71 1006 10 16.0934 N/A
4:35 am 04:35 Mostly Cloudy 56 13.2 54 12.1 93 93 Calm 29.71 1006 10 16.0934 N/A
4:55 am 04:55 Cloudy 57 14 55 12.5 91 91 SSE 8 13 29.68 1005 10 16.0934 N/A
5:15 am 05:15 Cloudy 57 13.9 54 12.4 91 91 SSE 6 9 29.65 1004 10 16.0934 N/A
5:35 am 05:35 Mostly Cloudy 56 13.4 53 11.8 90 90 Calm 29.68 1005 10 16.0934 N/A
5:55 am 05:55 Mostly Cloudy 56 13.3 54 12 92 92 Calm 29.68 1005 10 16.0934 N/A
6:15 am 06:15 Cloudy 56 13.5 54 12.1 91 91 Calm 29.65 1004 10 16.0934 N/A
6:35 am 06:35 Cloudy 55 12.9 53 11.7 92 92 WNW 3 6 29.71 1006 10 16.0934 N/A
6:55 am 06:55 Cloudy 57 13.7 54 12.4 92 92 Calm 29.71 1006 10 16.0934 0 0
7:15 am 07:15 Cloudy 57 14 55 12.5 91 91 Calm 29.74 1007 10 16.0934 N/A
7:35 am 07:35 Cloudy 58 14.2 55 12.5 90 90 NE 3 6 29.71 1006 10 16.0934 N/A
7:55 am 07:55 Cloudy 57 14 55 12.7 92 92 Calm 29.74 1007 10 16.0934 N/A
8:15 am 08:15 Cloudy 58 14.5 55 12.9 90 90 NNE 7 11 29.71 1006 10 16.0934 N/A
8:35 am 08:35 Cloudy 58 14.5 55 12.9 90 90 NNE 6 9 29.71 1006 10 16.0934 N/A
8:55 am 08:55 Cloudy 59 15 55 12.7 86 86 NNE 10 17 29.71 1006 10 16.0934 N/A
9:15 am 09:15 Cloudy 59 15.1 55 12.9 87 87 NE 8 13 29.71 1006 10 16.0934 N/A
9:35 am 09:35 Cloudy 59 15.1 55 12.9 87 87 NE 8 13 29.71 1006 10 16.0934 N/A
9:55 am 09:55 Cloudy 60 15.5 56 13.1 86 86 NE 9 15 29.71 1006 10 16.0934 N/A
10:15 am 10:15 Cloudy 61 15.9 56 13.3 85 85 NE 8 13 29.71 1006 10 16.0934 N/A
10:35 am 10:35 Cloudy 61 16 56 13.2 84 84 ENE 9 15 29.71 1006 10 16.0934 N/A
10:55 am 10:55 Cloudy 60 15.6 55 12.8 84 84 ENE 7 11 29.71 1006 10 16.0934 N/A
11:15 am 11:15 Cloudy with Heavy Rain 60 15.5 56 13.1 86 86 ENE 5 7 29.71 1006 2.5 4.02335 0.1 2.54
11:35 am 11:35 Cloudy 60 15.5 56 13.2 86 86 E 8 13 29.74 1007 10 16.0934 0.1 2.54
11:55 am 11:55 Cloudy 60 15.6 56 13.1 85 85 E 9 15 29.71 1006 10 16.0934 0.1 2.54
12:15 pm 12:15 Cloudy 60 15.7 56 13.3 86 86 E 10 17 29.71 1006 10 16.0934 N/A
12:35 pm 12:35 Cloudy 60 15.7 56 13.6 87 87 E 10 17 29.71 1006 10 16.0934 N/A
12:55 pm 12:55 Cloudy 60 15.7 56 13.4 86 86 ENE 12 19 29.71 1006 10 16.0934 0 0
1:15 pm 13:15 Cloudy 60 15.7 56 13.3 86 86 E 9 15 29.71 1006 10 16.0934 N/A
1:35 pm 13:35 Cloudy 61 16 56 13.4 85 85 E 9 15 29.71 1006 10 16.0934 N/A
1:55 pm 13:55 Cloudy 62 16.9 57 13.8 82 82 ENE 6 9 29.71 1006 10 16.0934 N/A
2:15 pm 14:15 Cloudy 64 18 57 14 78 78 E 6 9 29.68 1005 10 16.0934 N/A
2:35 pm 14:35 Cloudy 63 17.3 56 13.1 77 77 E 5 7 29.71 1006 10 16.0934 N/A
2:55 pm 14:55 Cloudy 63 17.1 56 13.1 77 77 E 6 9 29.71 1006 10 16.0934 N/A
3:15 pm 15:15 Cloudy 63 17 56 13.2 78 78 E 6 9 29.71 1006 10 16.0934 N/A
3:35 pm 15:35 Cloudy 63 17.1 57 13.7 81 81 NE 7 11 29.68 1005 10 16.0934 N/A
3:55 pm 15:55 Cloudy 63 17.2 57 13.8 81 81 E 7 11 29.65 1004 10 16.0934 N/A
4:15 pm 16:15 Cloudy 63 17.4 57 13.9 80 80 E 7 11 29.65 1004 10 16.0934 N/A
4:35 pm 16:35 Mostly Cloudy 67 19.2 58 14.7 75 75 E 10 17 29.65 1004 10 16.0934 N/A
4:55 pm 16:55 Sunny 67 19.3 58 14.3 73 73 E 8 13 29.65 1004 10 16.0934 N/A
5:15 pm 17:15 Partly Cloudy 67 19.4 57 14 71 71 E 8 13 29.65 1004 10 16.0934 N/A
5:35 pm 17:35 Mostly Cloudy 66 18.7 57 13.9 74 74 E 9 15 29.65 1004 10 16.0934 N/A
5:55 pm 17:55 Cloudy 65 18.4 57 14.1 76 76 E 6 9 29.62 1003 10 16.0934 N/A
6:15 pm 18:15 Cloudy 65 18.1 57 13.7 76 76 E 8 13 29.62 1003 10 16.0934 N/A
6:35 pm 18:35 Cloudy 65 18.5 57 14.1 76 76 E 6 9 29.62 1003 10 16.0934 N/A
6:55 pm 18:55 Cloudy 65 18.2 57 13.8 76 76 E 7 11 29.62 1003 10 16.0934 N/A
7:15 pm 19:15 Cloudy 65 18.5 58 14.5 78 78 E 6 9 29.62 1003 10 16.0934 N/A
7:35 pm 19:35 Mostly Cloudy 65 18.5 58 14.6 78 78 E 7 11 29.62 1003 10 16.0934 N/A
7:55 pm 19:55 Cloudy 65 18.6 58 14.4 77 77 E 3 6 29.62 1003 10 16.0934 N/A
8:15 pm 20:15 Cloudy 65 18.1 59 14.9 82 82 E 3 6 29.65 1004 10 16.0934 N/A
8:35 pm 20:35 Cloudy 64 17.7 59 14.8 83 83 Calm 29.65 1004 10 16.0934 N/A
8:55 pm 20:55 Cloudy 64 18 58 14.6 81 81 Calm 29.65 1004 10 16.0934 N/A
9:15 pm 21:15 Cloudy 63 17.1 57 13.8 81 81 NW 10 17 29.68 1005 10 16.0934 N/A
9:35 pm 21:35 Cloudy 60 15.8 55 12.8 82 82 NNW 16 26 29.68 1005 10 16.0934 N/A
9:55 pm 21:55 Cloudy 60 15.3 52 11.2 77 77 NNW 16 26 29.68 1005 10 16.0934 N/A
10:15 pm 22:15 Cloudy with Nearby Thunderstorms 59 15.1 51 10.5 74 74 NNW 18 30 29.68 1005 10 16.0934 N/A
10:35 pm 22:35 Cloudy 59 15 52 10.9 77 77 NNW 17 28 29.68 1005 10 16.0934 N/A
10:55 pm 22:55 Cloudy 60 15.5 54 12.1 80 80 NNW 14 22 29.68 1005 10 16.0934 N/A
11:15 pm 23:15 Cloudy with Light Thunderstorms 59 15 55 12.8 87 87 N 12 19 29.71 1006 10 16.0934 N/A
11:35 pm 23:35 Cloudy with Light Rain 59 15 55 13 88 88 N 5 7 29.71 1006 10 16.0934 0.01 0.254
11:55 pm 23:55 Cloudy with Light Thunderstorms 58 14.7 55 13 90 90 N 7 11 29.71 1006 10 16.0934 0.01 0.254

Powered by AerisWeather